• In Deutschland
  • Länderverzeichnis
  • Für 7 Tage
  • Wassertemperatur
  • Satellitenkarten
  • Wetterkarte
  • Widgets
  • user-avatar
    Anmelden

    Stündliche Wetter Ondjiwa

    Heute, 24 November, Freitag

    Zeit Temperatur Niederschläge Wind Luftdruck Luftfeuchtigkeit
    00:00 +26°C° 0,6 mm 2 m/S 666 mmHg 52%
    01:00 +26°C° 0 mm 3 m/S 667 mmHg 54%
    02:00 +25°C° 1,4 mm 2 m/S 667 mmHg 59%
    03:00 +24°C° 1,4 mm 2 m/S 666 mmHg 64%
    04:00 +23°C° 1,4 mm 2 m/S 666 mmHg 69%
    05:00 +24°C° 0,1 mm 2 m/S 667 mmHg 66%
    06:00 +25°C° 0,1 mm 2 m/S 667 mmHg 63%
    07:00 +26°C° 0 mm 2 m/S 668 mmHg 60%
    08:00 +28°C° 0 mm 2 m/S 668 mmHg 53%
    09:00 +29°C° 0 mm 2 m/S 669 mmHg 45%
    10:00 +31°C° 0 mm 2 m/S 669 mmHg 38%
    11:00 +34°C° 0 mm 2 m/S 668 mmHg 35%
    12:00 +35°C° 0 mm 2 m/S 668 mmHg 31%
    13:00 +35°C° 0 mm 1 m/S 668 mmHg 28%
    14:00 +35°C° 0 mm 2 m/S 667 mmHg 28%
    15:00 +35°C° 0 mm 2 m/S 667 mmHg 28%
    16:00 +35°C° 0 mm 2 m/S 666 mmHg 28%
    17:00 +34°C° 0 mm 2 m/S 666 mmHg 30%
    18:00 +32°C° 0 mm 2 m/S 666 mmHg 32%
    19:00 +31°C° 0 mm 2 m/S 666 mmHg 34%
    20:00 +30°C° 0 mm 2 m/S 666 mmHg 36%
    21:00 +30°C° 0 mm 2 m/S 667 mmHg 37%
    22:00 +29°C° 0 mm 1 m/S 667 mmHg 39%
    23:00 +29°C° 0 mm 2 m/S 667 mmHg 41%

    Morgen, 25 November, Samstag

    Zeit Temperatur Niederschläge Wind Luftdruck Luftfeuchtigkeit
    00:00 +28°C° 0 mm 2 m/S 667 mmHg 43%
    01:00 +27°C° 0 mm 3 m/S 666 mmHg 45%
    02:00 +27°C° 0 mm 2 m/S 666 mmHg 45%
    03:00 +27°C° 0 mm 2 m/S 666 mmHg 44%
    04:00 +26°C° 0 mm 2 m/S 666 mmHg 44%
    05:00 +27°C° 0 mm 2 m/S 666 mmHg 40%
    06:00 +28°C° 0 mm 2 m/S 667 mmHg 35%
    07:00 +28°C° 0 mm 2 m/S 667 mmHg 31%
    08:00 +31°C° 0 mm 2 m/S 667 mmHg 26%
    09:00 +34°C° 0 mm 2 m/S 668 mmHg 22%
    10:00 +36°C° 0 mm 2 m/S 668 mmHg 17%
    11:00 +37°C° 0 mm 3 m/S 667 mmHg 17%
    12:00 +38°C° 0 mm 3 m/S 667 mmHg 16%
    13:00 +39°C° 0 mm 3 m/S 666 mmHg 16%
    14:00 +39°C° 0 mm 3 m/S 666 mmHg 15%
    15:00 +39°C° 0 mm 3 m/S 665 mmHg 14%
    16:00 +39°C° 0 mm 3 m/S 664 mmHg 13%
    17:00 +37°C° 0 mm 3 m/S 664 mmHg 14%
    18:00 +36°C° 0 mm 2 m/S 664 mmHg 15%
    19:00 +34°C° 0 mm 2 m/S 664 mmHg 16%
    20:00 +32°C° 0 mm 2 m/S 665 mmHg 17%
    21:00 +31°C° 0 mm 2 m/S 666 mmHg 18%
    22:00 +30°C° 0 mm 3 m/S 666 mmHg 19%
    23:00 +29°C° 0 mm 3 m/S 666 mmHg 21%

    übermorgen, 26 November, Sonntag

    Zeit Temperatur Niederschläge Wind Luftdruck Luftfeuchtigkeit
    00:00 +28°C° 0 mm 3 m/S 666 mmHg 23%
    01:00 +27°C° 0 mm 3 m/S 665 mmHg 24%
    02:00 +26°C° 0 mm 3 m/S 665 mmHg 27%
    03:00 +25°C° 0 mm 3 m/S 665 mmHg 30%
    04:00 +24°C° 0 mm 3 m/S 665 mmHg 33%
    05:00 +25°C° 0 mm 3 m/S 666 mmHg 32%
    06:00 +25°C° 0 mm 4 m/S 666 mmHg 31%
    07:00 +26°C° 0 mm 4 m/S 667 mmHg 30%
    08:00 +28°C° 0 mm 4 m/S 667 mmHg 24%
    09:00 +32°C° 0 mm 4 m/S 668 mmHg 17%
    10:00 +34°C° 0 mm 3 m/S 668 mmHg 11%
    11:00 +36°C° 0 mm 3 m/S 668 mmHg 10%
    12:00 +37°C° 0 mm 3 m/S 667 mmHg 9%
    13:00 +38°C° 0 mm 3 m/S 667 mmHg 8%
    14:00 +38°C° 0 mm 3 m/S 666 mmHg 8%
    15:00 +38°C° 0 mm 4 m/S 666 mmHg 8%
    16:00 +38°C° 0 mm 4 m/S 665 mmHg 8%
    17:00 +37°C° 0 mm 3 m/S 665 mmHg 9%
    18:00 +35°C° 0 mm 3 m/S 665 mmHg 11%
    19:00 +32°C° 0 mm 2 m/S 665 mmHg 12%
    20:00 +31°C° 0 mm 3 m/S 666 mmHg 14%
    21:00 +30°C° 0 mm 3 m/S 666 mmHg 16%
    22:00 +29°C° 0 mm 4 m/S 667 mmHg 18%
    23:00 +28°C° 0 mm 4 m/S 666 mmHg 22%

    27 November, Montag

    Zeit Temperatur Niederschläge Wind Luftdruck Luftfeuchtigkeit
    00:00 +27°C° 0 mm 4 m/S 666 mmHg 26%
    01:00 +26°C° 0 mm 4 m/S 666 mmHg 30%
    02:00 +25°C° 0 mm 4 m/S 666 mmHg 32%
    03:00 +24°C° 0 mm 3 m/S 666 mmHg 33%
    04:00 +22°C° 0 mm 3 m/S 666 mmHg 35%
    05:00 +23°C° 0 mm 4 m/S 666 mmHg 34%
    06:00 +23°C° 0 mm 4 m/S 667 mmHg 34%
    07:00 +25°C° 0 mm 5 m/S 668 mmHg 33%
    08:00 +27°C° 0 mm 5 m/S 668 mmHg 28%
    09:00 +29°C° 0 mm 5 m/S 668 mmHg 22%
    10:00 +33°C° 0 mm 5 m/S 669 mmHg 16%
    11:00 +35°C° 0 mm 5 m/S 668 mmHg 14%
    12:00 +36°C° 0 mm 5 m/S 668 mmHg 12%
    13:00 +39°C° 0 mm 5 m/S 667 mmHg 9%
    14:00 +38°C° 0 mm 4 m/S 666 mmHg 9%
    15:00 +38°C° 0 mm 4 m/S 666 mmHg 8%
    16:00 +38°C° 0 mm 4 m/S 665 mmHg 8%
    17:00 +36°C° 0 mm 3 m/S 665 mmHg 10%
    18:00 +34°C° 0 mm 3 m/S 665 mmHg 11%
    19:00 +31°C° 0 mm 2 m/S 665 mmHg 12%
    20:00 +30°C° 0 mm 3 m/S 666 mmHg 16%
    21:00 +30°C° 0 mm 5 m/S 666 mmHg 19%
    22:00 +29°C° 0 mm 6 m/S 667 mmHg 23%
    23:00 +28°C° 0 mm 5 m/S 667 mmHg 27%

    28 November, Dienstag

    Zeit Temperatur Niederschläge Wind Luftdruck Luftfeuchtigkeit
    00:00 +27°C° 0 mm 4 m/S 666 mmHg 32%
    01:00 +25°C° 0 mm 4 m/S 666 mmHg 36%
    02:00 +25°C° 0 mm 4 m/S 666 mmHg 37%
    03:00 +24°C° 0 mm 3 m/S 666 mmHg 38%
    04:00 +22°C° 0 mm 3 m/S 666 mmHg 39%
    05:00 +24°C° 0 mm 3 m/S 666 mmHg 36%
    06:00 +25°C° 0 mm 3 m/S 667 mmHg 33%
    07:00 +25°C° 0 mm 3 m/S 668 mmHg 29%
    08:00 +27°C° 0 mm 3 m/S 668 mmHg 24%
    09:00 +29°C° 0 mm 3 m/S 668 mmHg 19%
    10:00 +33°C° 0 mm 3 m/S 669 mmHg 13%
    11:00 +34°C° 0 mm 3 m/S 668 mmHg 12%
    12:00 +36°C° 0 mm 3 m/S 667 mmHg 11%
    13:00 +37°C° 0 mm 3 m/S 667 mmHg 9%
    14:00 +37°C° 0 mm 3 m/S 666 mmHg 9%
    15:00 +38°C° 0 mm 3 m/S 666 mmHg 9%
    16:00 +38°C° 0 mm 3 m/S 665 mmHg 9%
    17:00 +36°C° 0 mm 2 m/S 665 mmHg 10%
    18:00 +34°C° 0 mm 2 m/S 665 mmHg 12%
    19:00 +31°C° 0 mm 1 m/S 665 mmHg 13%
    20:00 +31°C° 0 mm 2 m/S 666 mmHg 14%
    21:00 +30°C° 0 mm 2 m/S 666 mmHg 14%
    22:00 +29°C° 0 mm 3 m/S 666 mmHg 15%
    23:00 +28°C° 0 mm 3 m/S 666 mmHg 18%

    29 November, Mittwoch

    Zeit Temperatur Niederschläge Wind Luftdruck Luftfeuchtigkeit
    00:00 +27°C° 0 mm 3 m/S 666 mmHg 21%
    01:00 +27°C° 0 mm 3 m/S 666 mmHg 24%
    02:00 +26°C° 0 mm 3 m/S 666 mmHg 25%
    03:00 +26°C° 0 mm 3 m/S 666 mmHg 26%
    04:00 +26°C° 0 mm 3 m/S 666 mmHg 27%
    05:00 +26°C° 0 mm 3 m/S 667 mmHg 26%
    06:00 +26°C° 0 mm 3 m/S 667 mmHg 26%
    07:00 +27°C° 0 mm 3 m/S 668 mmHg 25%
    08:00 +29°C° 0 mm 2 m/S 668 mmHg 23%
    09:00 +31°C° 0 mm 2 m/S 668 mmHg 22%
    10:00 +33°C° 0 mm 1 m/S 668 mmHg 20%
    11:00 +35°C° 0 mm 1 m/S 668 mmHg 20%
    12:00 +36°C° 0 mm 1 m/S 667 mmHg 19%
    13:00 +39°C° 0 mm 2 m/S 667 mmHg 18%
    14:00 +38°C° 0 mm 2 m/S 666 mmHg 18%
    15:00 +37°C° 0 mm 1 m/S 666 mmHg 19%
    16:00 +36°C° 0 mm 1 m/S 665 mmHg 20%
    17:00 +36°C° 0 mm 2 m/S 665 mmHg 22%
    18:00 +35°C° 0 mm 2 m/S 665 mmHg 24%
    19:00 +34°C° 0 mm 2 m/S 665 mmHg 26%
    20:00 +32°C° 0 mm 1 m/S 666 mmHg 27%
    21:00 +31°C° 0 mm 1 m/S 666 mmHg 29%
    22:00 +31°C° 0 mm 1 m/S 666 mmHg 30%
    23:00 +30°C° 0 mm 1 m/S 666 mmHg 31%
    Mehr zeigen